Regional Weather Roundup
Issued by NWS

Home | Current Version | Previous Version | Text Only | Print | Product List | Glossary On
Versions: 1 2 3 4 5 6 7 8 9 10 11 12 13 14 15 16 17 18 19 20 21 22 23 24 25 26 27
000
ASUS45 KSLC 251610
RWRUT

UTAH REGIONAL WEATHER ROUNDUP
NATIONAL WEATHER SERVICE SALT LAKE CITY UT
1000 AM MDT MON JUL 25 2016

UTZ001>011-023>025-251700-

NORTHERN UTAH

CITY           SKY/WX    TMP DP  RH WIND       PRES   REMARKS
BRIGHAM CITY     N/A     76  36  23 N5        30.10S
DUGWAY         MOSUNNY   82  28  14 W2        30.12R
HILL AFB       MOSUNNY   78  36  22 E9        30.14R
LOGAN          SUNNY     71  39  31 CALM      30.15R
OGDEN          SUNNY     81  32  17 NE6       30.11S
PROVO AIRPORT  MOSUNNY   79  43  27 E5        30.13S
SALT LAKE CITY MOSUNNY   86  38  18 E7        30.08S
VERNAL         SUNNY     77  28  16 E5        30.21S
WENDOVER       SUNNY     84  28  13 E5        30.10S
HEBER CITY     MOSUNNY   68  37  32 CALM      30.22S

$$

UTZ012>022-026-027-251700-

SOUTHERN/CENTRAL UTAH

CITY           SKY/WX    TMP DP  RH WIND       PRES   REMARKS
BLANDING       PTSUNNY   78  47  34 S8        30.36R
BRYCE CANYON   SUNNY     78  41  26 CALM      30.40S
CEDAR CITY     SUNNY     84  46  26 SW8       30.22S
DELTA          SUNNY     86  41  20 SW10G16   30.13F
MILFORD        SUNNY     85  47  26 S17       30.16S
MOAB/CYNLANDS  SUNNY     89  41  18 VRB6      30.13R
PRICE          SUNNY     81  25  12 SE8       30.24S
ST GEORGE      MOSUNNY   90  48  24 SW3       30.05S

$$

REGIONAL REPORTS     COLORADO/ARIZONA

CITY           SKY/WX    TMP DP  RH WIND       PRES   REMARKS
CRAIG, CO      SUNNY     75  42  30 CALM      30.29F
GRAND JUNCTION MOSUNNY   80  43  26 SE13      30.18R
RIFLE          SUNNY     74  44  34 CALM      30.26F
MONTROSE       CLOUDY    77  48  35 W7        30.27F
CORTEZ         CLOUDY    78  50  37 CALM      30.29S
PAGE, AZ       SUNNY     83  47  28 W5        30.15S
GRAND CANYON   PTSUNNY   75  51  43 SW6       30.36R
KINGMAN        SUNNY     87  55  33 SW13      30.10R
FLAGSTAFF      SUNNY     74  51  44 SW6       30.37S

$$

REGIONAL REPORTS    NEVADA/IDAHO/WYOMING

CITY           SKY/WX    TMP DP  RH WIND       PRES   REMARKS
LAS VEGAS, NV  MOSUNNY   97  34  11 VRB6      29.91R HX  91
ELY            SUNNY     81  34  18 S10       30.25S
ELKO           SUNNY     73  29  19 MISG      30.18S
POCATELLO, ID  SUNNY     73  34  23 CALM      30.14F
BURLEY         SUNNY     72  42  34 NW3       30.11S
EVANSTON, WY   CLOUDY    73  29  19 VRB3      30.32F
ROCK SPRINGS   SUNNY     74  21  13 S3        30.32S
KEMMERER         N/A     73  27  17 CALM      30.34F

$$




USA.gov is the U.S. government's official web portal to all federal, state and local government web resources and services.